Location: Eaton Estates
(41.3089°N, 82.0057°W)
Time: 12:08:46
(UTC+00:00)

USA 267 - Pass Details

Date: 17 June 2021
Orbit: 1102 x 1106 km, 123.0° (Epoch: 24 July)

Event Time Altitude Azimuth Distance (km) Brightness Sun altitude
Exits shadow 05:21:37 40° 131° (SE) 1,565 3.7 -25.3°
Maximum altitude 05:24:15 90° 47° (NE) 1,107 3.2 -25.3°
Drops below altitude 10° 05:30:49 10° 313° (NW) 2,966 6.0 -25.3°
Sets 05:33:19 0° 313° (NW) 3,926 6.8 -25.3°
